Location: Krasnoyarskiy Pitomnik
(51.1333°N, 71.6167°E)
Time: 09:57:04
(UTC+00:00)

Lacrosse 5 - Pass Details

Date: 22 October 2021
Orbit: 714 x 724 km, 57.0° (Epoch: 28 August)

Event Time Altitude Azimuth Distance (km) Brightness Sun altitude
Exits shadow 22:50:19 52° 124° (SE) 890 2.4 -28.6°
Drops below altitude 10° 22:54:09 10° 123° (ESE) 2,200 4.8 -28.0°
Sets 22:56:31 0° 123° (ESE) 3,116 5.7 -27.7°
